Howell, MI

2:13 PM EDT on July 23, 2017 (GMT -0400)
Livingston County

Weather History for KOZW - April, 2013

Change the Weather History Date:

Sunday, April 21, 2013

  Actual Average Record
Temperature  
Mean Temperature 36 °F -  
Max Temperature 48 °F 59 °F 77 °F (2006)
Min Temperature 24 °F 38 °F 24 °F (2013)
Degree Days  
Heating Degree Days 29    
Moisture  
Dew Point 26 °F    
Average Humidity 67    
Maximum Humidity 97    
Minimum Humidity 41    
Precipitation  
Precipitation 0.00 in - - ()
Sea Level Pressure  
Sea Level Pressure 30.50 in    
Wind  
Wind Speed 4 mph (SE)    
Max Wind Speed 14 mph    
Max Gust Speed 18 mph    
Visibility 10 miles    
Events      
Averages and records for this station are not official NWS values.
T = Trace of Precipitation, MM = Missing Value Source: NWS Daily Summary

Daily Weather History Graph

Daily Weather History Graph

Search for Another Location

Airport or City:

Trip Planner

Search our weather history database for the weather conditions in past years. The results will help you decide how hot, cold, wet, or windy it might be!

Date:

Astronomy

Apr. 21, 2013 Rise Set
Actual Time 6:44 AM EDT 8:25 PM EDT
Civil Twilight 6:14 AM EDT 8:55 PM EDT
Nautical Twilight 5:38 AM EDT 9:31 PM EDT
Astronomical Twilight 5:00 AM EDT 10:10 PM EDT
Moon 4:04 PM EDT (4/21) 4:12 AM EDT (4/21)
Length of Visible Light 14h 40m
Length of Day
13h 40m
Waxing Gibbous, 79% of the Moon is Illuminated
Apr 21
Waxing Gibbous
Apr 25
Full
May 2
Last Quarter
May 9
New
May 18
First Quarter

Hourly Weather History & Observations

Time (EDT) Temp. Windchill Dew Point Humidity Pressure Visibility Wind Dir Wind Speed Gust Speed Precip Events Conditions
12:15 AM 30.2 °F 26.7 °F 24.1 °F 78% 30.43 in 10.0 mi SW 3.5 mph - N/A   Clear
12:35 AM 29.7 °F 26.1 °F 24.6 °F 81% 30.43 in 10.0 mi WSW 3.5 mph - N/A   Clear
12:55 AM 29.3 °F - 24.6 °F 83% 30.43 in 10.0 mi Calm Calm - N/A   Clear
1:15 AM 28.4 °F - 24.4 °F 85% 30.44 in 10.0 mi Calm Calm - N/A   Clear
1:35 AM 28.2 °F - 24.4 °F 86% 30.44 in 10.0 mi Calm Calm - N/A   Clear
1:55 AM 28.4 °F - 24.6 °F 86% 30.45 in 10.0 mi Calm Calm - N/A   Clear
2:15 AM 28.4 °F - 23.5 °F 82% 30.45 in 10.0 mi Calm Calm - N/A   Clear
2:35 AM 26.6 °F - 22.8 °F 86% 30.45 in 10.0 mi Calm Calm - N/A   Clear
2:55 AM 27.0 °F - 24.1 °F 89% 30.46 in 10.0 mi Calm Calm - N/A   Clear
3:14 AM 27.1 °F - 24.4 °F 90% 30.46 in 10.0 mi Calm Calm - N/A   Clear
3:35 AM 26.6 °F - 24.1 °F 90% 30.47 in 10.0 mi Calm Calm - N/A   Clear
3:55 AM 26.4 °F - 24.4 °F 92% 30.48 in 10.0 mi Calm Calm - N/A   Clear
4:14 AM 25.9 °F - 23.9 °F 92% 30.48 in 10.0 mi Calm Calm - N/A   Clear
4:35 AM 25.2 °F - 23.7 °F 94% 30.48 in 10.0 mi Calm Calm - N/A   Clear
4:54 AM 25.3 °F - 23.9 °F 94% 30.49 in 10.0 mi Calm Calm - N/A   Clear
5:15 AM 25.0 °F - 23.5 °F 94% 30.50 in 10.0 mi Calm Calm - N/A   Clear
5:35 AM 25.5 °F - 24.3 °F 95% 30.50 in 10.0 mi Calm Calm - N/A   Clear
5:54 AM 24.4 °F - 23.4 °F 96% 30.50 in 7.0 mi Calm Calm - N/A   Clear
6:15 AM 24.1 °F - 23.2 °F 96% 30.52 in 10.0 mi Calm Calm - N/A   Clear
6:35 AM 24.8 °F - 24.1 °F 97% 30.53 in 7.0 mi Calm Calm - N/A   Clear
6:55 AM 25.5 °F - 24.3 °F 95% 30.54 in 7.0 mi Calm Calm - N/A   Clear
7:15 AM 25.3 °F - 23.9 °F 94% 30.55 in 10.0 mi Calm Calm - N/A   Clear
7:35 AM 26.6 °F - 25.5 °F 96% 30.56 in 7.0 mi Calm Calm - N/A   Clear
7:55 AM 27.7 °F - 26.6 °F 96% 30.57 in 7.0 mi Calm Calm - N/A   Clear
8:15 AM 29.1 °F - 27.5 °F 94% 30.58 in 10.0 mi Calm Calm - N/A   Clear
8:35 AM 31.5 °F 28.1 °F 28.4 °F 88% 30.59 in 10.0 mi ESE 3.5 mph - N/A   Clear
8:55 AM 33.1 °F 28.7 °F 28.0 °F 82% 30.59 in 10.0 mi ESE 4.6 mph - N/A   Clear
9:15 AM 35.2 °F 31.2 °F 27.5 °F 73% 30.59 in 10.0 mi SE 4.6 mph - N/A   Clear
9:35 AM 36.5 °F 29.2 °F 27.9 °F 71% 30.59 in 10.0 mi SE 10.4 mph - N/A   Clear
9:55 AM 37.4 °F 31.4 °F 26.1 °F 64% 30.59 in 10.0 mi ESE 8.1 mph - N/A   Clear
10:15 AM 38.3 °F 31.4 °F 26.1 °F 61% 30.59 in 10.0 mi ESE 10.4 mph - N/A   Clear
10:34 AM 38.8 °F 32.1 °F 25.0 °F 58% 30.59 in 10.0 mi East 10.4 mph - N/A   Clear
10:55 AM 39.6 °F 32.5 °F 25.7 °F 58% 30.59 in 10.0 mi ESE 11.5 mph - N/A   Clear
11:15 AM 40.5 °F 34.6 °F 26.2 °F 57% 30.59 in 10.0 mi SE 9.2 mph - N/A   Clear
11:34 AM 40.6 °F 34.3 °F 24.4 °F 53% 30.59 in 10.0 mi ESE 10.4 mph - N/A   Clear
11:55 AM 41.5 °F 34.6 °F 25.2 °F 52% 30.59 in 10.0 mi SE 12.7 mph 16.1 mph N/A   Clear
12:15 PM 42.1 °F 35.7 °F 24.6 °F 50% 30.58 in 10.0 mi ESE 11.5 mph - N/A   Clear
12:35 PM 43.3 °F 36.8 °F 25.9 °F 50% 30.58 in 10.0 mi ESE 12.7 mph - N/A   Clear
12:55 PM 43.9 °F 37.9 °F 25.9 °F 49% 30.57 in 10.0 mi ESE 11.5 mph 16.1 mph N/A   Clear
1:15 PM 44.8 °F 40.4 °F 26.2 °F 48% 30.56 in 10.0 mi ESE 8.1 mph 16.1 mph N/A   Clear
1:35 PM 45.1 °F 41.4 °F 26.6 °F 48% 30.55 in 10.0 mi East 6.9 mph 16.1 mph N/A   Clear
1:55 PM 45.3 °F 39.7 °F 25.0 °F 45% 30.55 in 10.0 mi SE 11.5 mph - N/A   Clear
2:15 PM 45.7 °F 41.5 °F 25.2 °F 45% 30.54 in 10.0 mi ESE 8.1 mph 18.4 mph N/A   Clear
2:35 PM 46.8 °F - 26.4 °F 45% 30.54 in 10.0 mi SE 8.1 mph 16.1 mph N/A   Clear
2:55 PM 46.8 °F - 24.8 °F 42% 30.53 in 10.0 mi SSE 8.1 mph 16.1 mph N/A   Clear
3:15 PM 47.3 °F - 24.8 °F 41% 30.52 in 10.0 mi SE 6.9 mph - N/A   Clear
3:35 PM 47.3 °F - 25.7 °F 43% 30.51 in 10.0 mi SSE 9.2 mph 17.3 mph N/A   Clear
3:55 PM 47.8 °F - 25.7 °F 42% 30.50 in 10.0 mi SE 6.9 mph - N/A   Clear
4:15 PM 48.6 °F - 28.0 °F 45% 30.49 in 10.0 mi SSE 8.1 mph - N/A   Clear
4:35 PM 48.0 °F - 26.1 °F 42% 30.49 in 10.0 mi SE 8.1 mph - N/A   Clear
4:55 PM 48.6 °F - 28.6 °F 46% 30.48 in 10.0 mi SSE 12.7 mph 16.1 mph N/A   Clear
5:15 PM 48.6 °F - 28.6 °F 46% 30.47 in 10.0 mi ESE 13.8 mph - N/A   Clear
5:35 PM 48.2 °F - 28.0 °F 46% 30.46 in 10.0 mi SE 8.1 mph - N/A   Clear
5:55 PM 48.2 °F - 27.7 °F 45% 30.46 in 10.0 mi SSE 12.7 mph 17.3 mph N/A   Clear
6:15 PM 48.2 °F - 28.2 °F 46% 30.46 in 10.0 mi ESE 10.4 mph - N/A   Clear
6:35 PM 47.5 °F - 28.6 °F 48% 30.46 in 10.0 mi SE 10.4 mph - N/A   Clear
6:54 PM 46.9 °F - 28.8 °F 49% 30.46 in 10.0 mi SE 10.4 mph - N/A   Clear
7:15 PM 46.4 °F 41.1 °F 29.3 °F 51% 30.45 in 10.0 mi SSE 11.5 mph - N/A   Clear
7:34 PM 45.1 °F 39.1 °F 27.7 °F 50% 30.45 in 10.0 mi ESE 12.7 mph - N/A   Clear
7:55 PM 44.1 °F 37.7 °F 27.7 °F 53% 30.46 in 10.0 mi SE 12.7 mph - N/A   Clear
8:15 PM 43.2 °F 37.0 °F 28.0 °F 55% 30.46 in 10.0 mi ESE 11.5 mph - N/A   Clear
8:34 PM 41.9 °F 35.0 °F 27.7 °F 57% 30.46 in 10.0 mi SE 12.7 mph - N/A   Clear
8:55 PM 41.0 °F 35.2 °F 26.8 °F 57% 30.46 in 10.0 mi SE 9.2 mph - N/A   Clear
9:14 PM 39.6 °F 33.5 °F 25.7 °F 58% 30.46 in 10.0 mi SE 9.2 mph - N/A   Clear
9:35 PM 39.0 °F 32.8 °F 24.1 °F 55% 30.46 in 10.0 mi SE 9.2 mph - N/A   Clear
9:55 PM 38.5 °F 32.7 °F 24.6 °F 58% 30.46 in 10.0 mi SE 8.1 mph - N/A   Clear
10:14 PM 38.3 °F 32.5 °F 25.3 °F 60% 30.46 in 10.0 mi SE 8.1 mph - N/A   Clear
10:35 PM 37.6 °F 31.6 °F 24.8 °F 60% 30.46 in 10.0 mi SE 8.1 mph - N/A   Clear
10:55 PM 36.7 °F 30.5 °F 25.2 °F 63% 30.46 in 10.0 mi SE 8.1 mph - N/A   Clear
11:14 PM 37.4 °F 30.3 °F 25.2 °F 61% 30.45 in 10.0 mi SE 10.4 mph - N/A   Clear
11:35 PM 36.9 °F 29.1 °F 24.8 °F 62% 30.45 in 10.0 mi SE 11.5 mph - N/A   Clear
11:55 PM 36.5 °F 29.2 °F 23.7 °F 60% 30.45 in 10.0 mi SE 10.4 mph - N/A   Clear